Location: Arthurs Seat
(13.1500°N, 59.6000°W)
Time: 12:28:48
(UTC+00:00)

NATO 3D Rocket - Pass Details

Date: 25 August 2019
Orbit: 670 x 2296 km, 21.5° (Epoch: 20 September)

Event Time Altitude Azimuth Distance (km) Brightness Sun altitude
Rises 23:35:14 0° 238° (WSW) 4,745 8.2 -20.0°
Reaches altitude 10° 23:39:00 10° 233° (SW) 3,485 7.3 -20.9°
Maximum altitude 23:47:04 49° 161° (SSE) 1,340 4.4 -22.8°
Enters shadow 23:48:20 43° 129° (SE) 1,370 4.3 -23.1°
